COSMOS 1452

Satellite information

Favourite Embed

Satellite Type and Status

PAYLOADIN ORBIT

Key statistics

Satellite COSMOS 1452 at a glance.

Uptime

15366

Days in orbit

Revolutions

≈ 14.3

Per day

Orbit

LEO

Low Earth Orbit

Inclination

74.0

Latest

Satellite identification and parameters

Extended collection of information and parameters for COSMOS 1452.

Object identification

Identified? True

Debris? False

Object name: COSMOS 1452

International designator: 1983-031A

Object number (NORAD): 13991

Object ID (CCSDS): 13991

Country: COMMONWEALTH OF INDEPENDENT STATES (CIS)

Current information (Y/N): Y

RCS size: LARGE

Orbital parameters

Period: 100.43 minutes

Inclination: 74.0489 deg

SMA: 7157.068 km

Apoapsis: 791.093 km

Periapsis: 766.772 km

RAAN: 225.8732 deg

Eccentricy: 0.0016991

Argument of periapsis: 293.9145 deg

Mean anomaly: 170.7914 deg

Mean motion: 14.33837994 rev/day

Mean motion (dot): 0.00000199 rev/day2

B* drag term: 0.000080899 1/REarth

Two-line elements (TLE)

Creation date: May 7, 2025, 3:14 a.m.

Reference frame: TEME

Reference center: EARTH

Epoch: May 6, 2025, 3:15 p.m. UTC

TLE line 0: 0 COSMOS 1452

TLE line 1: 1 13991U 83031A 25126.63568154 .00000199 00000-0 80899-4 0 9999

TLE line 2: 2 13991 74.0489 225.8732 0016991 293.9145 170.7914 14.33837994198340

Live tracking on map

Real-time ground track for satellite COSMOS 1452.

In-orbit conjunctions

A list of the most updated potential collisions computed for object COSMOS 1452.

Target Orbit TCA Probability of collision Miss distance Type
CZ-6A DEB SSO 2025-04-06 08:09:42 0.001079936 184.0 (m) DEBRIS
CZ-6A DEB LEO 2025-03-23 06:51:25 0.0002353261 289.0 (m) DEBRIS
FENGYUN 1C DEB SSO 2025-02-10 08:44:40 0.0006323392 267.0 (m) DEBRIS
NOAA 16 DEB SSO 2024-09-25 20:16:35 0.0005789371 449.0 (m) DEBRIS
DMSP 5D-2 F13 DEB SSO 2024-08-11 12:23:04 0.0001196988 501.0 (m) DEBRIS

Associated space launch

Military communications satellite

COSMOS 1452 was lifted into orbit during the mission ‘Kosmos-3M | Strela-2M 31’, on board a Kosmos-3M space rocket.

The launch took place on April 12, 1983, 6:20 p.m. from 132/2.

For more information about the launch, click the button.

Launch to space Kosmos-3M | Strela-2M 31
Kosmos-3M | Strela-2M 31

Agency: N/A

Status: Launch Successful

Launch date: April 12, 1983, 6:20 p.m. UTC

Rocket: Kosmos-3M

Launch pad: 132/2

Location: Plesetsk Cosmodrome, Russian Federation

...

Latest news about this satellite

There are no fresh news available about this satellite. Check back as we update our databases every day.


Newsletter sign-up

Weekly statistics, charts and insights to help you stay on top of the space industry.